User: anonymous   Login
Location: Aulnoy
(48.8410°N, 3.0967°E)
Time: 23:37:14
(UTC+00:00)
Language:

CSL-04 Debris - Orbit

View from above orbital plane
View from above orbital plane
View from above satellite
View from above satellite

Ground track
Ground track

The orbit data is extracted from the following two-line orbital elements,

1 25733U 99025D   23156.57683117  .00000506  00000-0  27302-3 0  9998
2 25733  98.8210 199.5276 0016087 115.0410 245.2437 14.17047105243043
Epoch (UTC): 05 June 2023 13:50:38
Eccentricity: 0.0016087
inclination: 98.8210°
perigee height: 824 km
apogee height: 847 km
right ascension of ascending node: 199.5276°
argument of perigee: 115.0410°
revolutions per day: 14.17047105
mean anomaly at epoch: 245.2437°
orbit number at epoch: 24304

The dashed part of the orbit path shows where the satellite is in the earth's shadow,  

DLR